User: anonymous   Login
Location: Unspecified
(0.0000°N, 0.0000°E)
Time: 17:30:36
(UTC+00:00)
Language:

DX 1 - Orbit

View from above orbital plane
View from above orbital plane
View from above satellite
View from above satellite

Ground track
Ground track

The orbit data is extracted from the following two-line orbital elements,

1 40071U 14037C   19292.35991386  .00000074  00000-0  17027-4 0  9996
2 40071  98.4416  92.6215 0008099 185.0209 175.0920 14.81299151285417
Epoch (UTC): 19 October 2019 08:38:16
Eccentricity: 0.0008099
inclination: 98.4416°
perigee height: 619 km
apogee height: 631 km
right ascension of ascending node: 92.6215°
argument of perigee: 185.0209°
revolutions per day: 14.81299151
mean anomaly at epoch: 175.0920°
orbit number at epoch: 28541

The dashed part of the orbit path shows where the satellite is in the earth's shadow,  

DLR